This demonstration page uses our WeatherBlox Daily Observations layout. Learn more.

Left ArrowRight Arrow

39.29038, -76.61219

Hourly Observations for May 31, 2020

Temp ( °F °C ) Dew Point ( °F °C ) Humidity (%) Winds ( mph kmh ) Pressure ( in mb ) Visibility ( mi km ) Precip ( " mm )
12:54 am 00:54 undefined 70 21.1 48 8.9 46 46 undefined N/A 29.99 1016 N/A N/A
1:54 am 01:54 undefined 68 20 46 7.8 45 45 undefined N/A 30.01 1016 N/A N/A
2:54 am 02:54 undefined 66 18.9 41 5 40 40 undefined N/A 30.01 1016 N/A N/A
3:54 am 03:54 undefined 64 17.8 40 4.4 41 41 undefined N/A 30.04 1017 N/A N/A
4:54 am 04:54 undefined 62 16.7 40 4.4 44 44 undefined N/A 30.06 1018 N/A N/A
5:54 am 05:54 undefined 61 16.1 40 4.4 46 46 undefined N/A 30.08 1019 N/A N/A
6:54 am 06:54 undefined 62 16.7 40 4.4 44 44 undefined N/A 30.12 1020 N/A N/A
7:54 am 07:54 undefined 63 17.2 42 5.6 47 47 undefined N/A 30.17 1022 N/A N/A
8:54 am 08:54 undefined 64 17.8 43 6.1 46 46 undefined N/A 30.17 1022 N/A N/A
9:54 am 09:54 undefined 67 19.4 43 6.1 42 42 undefined N/A 30.17 1022 N/A N/A
10:54 am 10:54 undefined 68 20 42 5.6 39 39 undefined N/A 30.16 1021 N/A N/A
11:54 am 11:54 undefined 70 21.1 42 5.6 37 37 undefined N/A 30.16 1021 N/A N/A
12:54 pm 12:54 undefined 71 21.7 41 5 34 34 undefined N/A 30.12 1020 N/A N/A
1:54 pm 13:54 undefined 70 21.1 40 4.4 34 34 undefined N/A 30.11 1020 N/A N/A
2:54 pm 14:54 undefined 74 23.3 39 3.9 28 28 undefined N/A 30.09 1019 N/A N/A
3:54 pm 15:54 undefined 73 22.8 39 3.9 29 29 undefined N/A 30.09 1019 N/A N/A
4:54 pm 16:54 undefined 74 23.3 39 3.9 28 28 undefined N/A 30.09 1019 N/A N/A
5:54 pm 17:54 undefined 72 22.2 35 1.7 26 26 undefined N/A 30.08 1019 N/A N/A
6:54 pm 18:54 undefined 72 22.2 35 1.7 26 26 undefined N/A 30.08 1019 N/A N/A
7:54 pm 19:54 undefined 71 21.7 34 1.1 26 26 undefined N/A 30.10 1019 N/A N/A
8:54 pm 20:54 undefined 69 20.6 37 2.8 31 31 undefined N/A 30.12 1020 N/A N/A
9:54 pm 21:54 undefined 68 20 36 2.2 31 31 undefined N/A 30.15 1021 N/A N/A
10:54 pm 22:54 undefined 66 18.9 36 2.2 33 33 undefined N/A 30.16 1022 N/A N/A
11:54 pm 23:54 undefined 64 17.8 37 2.8 37 37 undefined N/A 30.18 1022 N/A N/A

Powered by AerisWeather